Henry Tift Myers AP, Tifton,, GA

9:09 AM EST on December 15, 2019 (GMT -0500)
Myers

Weather History for KTMA - November, 2019

Change the Weather History Date:

Tuesday, November 12, 2019

  Actual Average Record
Temperature  
Mean Temperature 50 °F -  
Max Temperature 64 °F 69 °F 86 °F (2014)
Min Temperature 35 °F 46 °F 42 °F (2013)
Degree Days  
Heating Degree Days 16    
Moisture  
Dew Point 47 °F    
Average Humidity 83    
Maximum Humidity 96    
Minimum Humidity 62    
Precipitation  
Precipitation 0.00 in - - ()
Sea Level Pressure  
Sea Level Pressure 30.02 in    
Wind  
Wind Speed 7 mph ()    
Max Wind Speed 21 mph    
Max Gust Speed 28 mph    
Visibility 9.7 miles    
Events Rain    
Averages and records for this station are not official NWS values.
T = Trace of Precipitation, MM = Missing Value Source: Averaged Metar Reports

Daily Weather History Graph

Daily Weather History Graph

Search for Another Location

Airport or City:

Astronomy

Nov. 12, 2019 Rise Set
Actual Time 6:58 AM EST 5:36 PM EST
Civil Twilight 6:33 AM EST 6:02 PM EST
Nautical Twilight 6:04 AM EST 6:31 PM EST
Astronomical Twilight 5:35 AM EST 7:00 PM EST
Moon 6:01 PM EST (11/12) 6:52 AM EST (11/12)
Length of Visible Light 11h 29m
Length of Day
10h 38m
Full, 100% of the Moon is Illuminated
Nov 12
Full
Nov 19
Last Quarter
Nov 26
New
Dec 4
First Quarter
Dec 12
Full

Hourly Weather History & Observations

Time (EST) Temp. Windchill Dew Point Humidity Pressure Visibility Wind Dir Wind Speed Gust Speed Precip Events Conditions
12:15 AM 55.2 °F - 54.1 °F 96% 30.03 in 10.0 mi SE 4.6 mph - N/A   Clear
12:35 AM 56.8 °F - 54.3 °F 91% 30.02 in 10.0 mi SE 4.6 mph - N/A   Clear
12:55 AM 59.9 °F - 55.4 °F 85% 30.01 in 10.0 mi SE 5.8 mph - N/A   Clear
1:15 AM 59.0 °F - 54.9 °F 86% 30.00 in 10.0 mi SE 3.5 mph - N/A   Clear
1:35 AM 59.2 °F - 55.4 °F 87% 29.99 in 10.0 mi SSE 4.6 mph - N/A   Clear
1:55 AM 59.5 °F - 55.9 °F 88% 29.98 in 10.0 mi SSE 5.8 mph - N/A   Clear
2:15 AM 60.1 °F - 56.3 °F 87% 29.97 in 10.0 mi SSE 3.5 mph - N/A   Clear
2:35 AM 59.9 °F - 56.3 °F 88% 29.96 in 10.0 mi Calm Calm - N/A   Clear
2:55 AM 59.9 °F - 56.5 °F 88% 29.94 in 10.0 mi Calm Calm - N/A   Clear
3:15 AM 59.5 °F - 56.7 °F 90% 29.93 in 10.0 mi Calm Calm - N/A   Clear
3:35 AM 59.9 °F - 56.7 °F 89% 29.93 in 10.0 mi Calm Calm - N/A   Clear
3:55 AM 58.8 °F - 56.7 °F 93% 29.93 in 10.0 mi Calm Calm - N/A   Clear
4:15 AM 58.6 °F - 56.3 °F 92% 29.93 in 10.0 mi Calm Calm - N/A   Clear
4:35 AM 59.2 °F - 57.0 °F 93% 29.93 in 10.0 mi Calm Calm - N/A   Clear
4:55 AM 57.4 °F - 56.1 °F 96% 29.93 in 10.0 mi Calm Calm - N/A   Clear
5:15 AM 59.7 °F - 58.1 °F 94% 29.93 in 10.0 mi South 4.6 mph - N/A   Clear
5:35 AM 59.9 °F - 58.3 °F 94% 29.93 in 10.0 mi SSW 3.5 mph - N/A   Clear
5:55 AM 60.1 °F - 58.3 °F 94% 29.93 in 10.0 mi SSW 4.6 mph - N/A   Clear
6:15 AM 60.1 °F - 58.3 °F 94% 29.93 in 10.0 mi Calm Calm - N/A   Clear
6:35 AM 59.9 °F - 58.1 °F 94% 29.93 in 10.0 mi SW 3.5 mph - N/A   Clear
6:55 AM 59.9 °F - 58.1 °F 94% 29.93 in 10.0 mi South 4.6 mph - N/A   Clear
7:15 AM 60.1 °F - 58.1 °F 93% 29.93 in 10.0 mi SSW 4.6 mph - N/A   Clear
7:35 AM 60.4 °F - 58.5 °F 93% 29.92 in 10.0 mi South 4.6 mph - N/A   Clear
7:55 AM 61.5 °F - 59.0 °F 91% 29.93 in 10.0 mi South 5.8 mph - N/A   Clear
8:15 AM 63.0 °F - 60.3 °F 91% 29.93 in 10.0 mi SSW 4.6 mph - N/A   Scattered Clouds
8:35 AM 63.5 °F - 60.4 °F 90% 29.94 in 10.0 mi SSW 5.8 mph - N/A   Overcast
8:55 AM 64.0 °F - 60.3 °F 87% 29.94 in 10.0 mi South 5.8 mph - N/A   Overcast
9:15 AM 63.5 °F - 60.8 °F 91% 29.95 in 7.0 mi SSW 4.6 mph - N/A Rain Rain
9:35 AM 63.5 °F - 61.5 °F 93% 29.95 in 10.0 mi West 3.5 mph - N/A Rain Light Rain
9:55 AM 62.6 °F - 61.0 °F 94% 29.96 in 5.0 mi West 6.9 mph - N/A   Light Drizzle
10:15 AM 61.7 °F - 60.1 °F 94% 29.96 in 10.0 mi West 8.1 mph - N/A   Overcast
10:35 AM 62.1 °F - 60.8 °F 96% 29.96 in 10.0 mi West 6.9 mph - N/A Rain Rain
10:55 AM 62.6 °F - 61.2 °F 95% 29.96 in 10.0 mi WNW 11.5 mph - N/A   Light Drizzle
11:15 AM 62.6 °F - 60.1 °F 91% 29.97 in 10.0 mi WNW 15.0 mph 19.6 mph N/A   Overcast
11:35 AM 61.9 °F - 59.5 °F 92% 29.97 in 10.0 mi NW 15.0 mph 23.0 mph N/A   Overcast
11:55 AM 56.8 °F - 55.2 °F 94% 30.00 in 10.0 mi NW 17.3 mph - N/A   Overcast
12:15 PM 54.1 °F - 52.7 °F 95% 30.01 in 5.0 mi NW 12.7 mph 19.6 mph N/A Rain Rain
12:35 PM 53.1 °F - 51.8 °F 95% 30.01 in 7.0 mi NW 12.7 mph 18.4 mph N/A Rain Rain
12:55 PM 51.1 °F - 49.3 °F 94% 29.99 in 7.0 mi NW 17.3 mph 23.0 mph N/A Rain Light Rain
1:15 PM 51.6 °F - 48.9 °F 90% 29.99 in 10.0 mi NNW 18.4 mph 23.0 mph N/A   Overcast
1:35 PM 51.4 °F - 48.9 °F 91% 30.00 in 10.0 mi NW 15.0 mph - N/A   Overcast
1:55 PM 50.0 °F - 46.2 °F 87% 30.00 in 10.0 mi NNW 17.3 mph 27.6 mph N/A   Overcast
2:15 PM 50.5 °F - 44.1 °F 78% 30.00 in 10.0 mi NNW 20.7 mph 26.5 mph N/A   Overcast
2:35 PM 50.4 °F - 43.9 °F 78% 30.01 in 10.0 mi NNW 16.1 mph 21.9 mph N/A   Overcast
2:55 PM 48.2 °F - 41.7 °F 78% 30.01 in 10.0 mi NNW 15.0 mph 25.3 mph N/A   Overcast
3:15 PM 47.3 °F - 41.5 °F 80% 30.01 in 10.0 mi NNW 16.1 mph 20.7 mph N/A   Overcast
3:35 PM 46.9 °F - 41.0 °F 80% 30.01 in 10.0 mi NW 15.0 mph - N/A   Overcast
3:55 PM 46.4 °F 40.1 °F 39.4 °F 77% 30.02 in 10.0 mi NW 15.0 mph 23.0 mph N/A   Mostly Cloudy
4:15 PM 46.0 °F 40.2 °F 38.8 °F 76% 30.03 in 10.0 mi NNW 12.7 mph 17.3 mph N/A   Scattered Clouds
4:35 PM 46.9 °F - 38.7 °F 73% 30.03 in 10.0 mi NW 17.3 mph 26.5 mph N/A   Scattered Clouds
4:55 PM 46.6 °F - 38.1 °F 72% 30.04 in 10.0 mi NW 18.4 mph 23.0 mph N/A   Scattered Clouds
5:15 PM 45.9 °F 39.1 °F 37.4 °F 72% 30.04 in 10.0 mi NNW 16.1 mph 21.9 mph N/A   Scattered Clouds
5:35 PM 45.9 °F 40.4 °F 37.0 °F 71% 30.06 in 10.0 mi NNW 11.5 mph 21.9 mph N/A   Clear
5:55 PM 45.9 °F 40.8 °F 36.9 °F 71% 30.06 in 10.0 mi NNW 10.4 mph - N/A   Mostly Cloudy
6:15 PM 46.0 °F 39.9 °F 35.6 °F 67% 30.07 in 10.0 mi NNW 13.8 mph 17.3 mph N/A   Mostly Cloudy
6:35 PM 45.9 °F 40.0 °F 33.8 °F 63% 30.08 in 10.0 mi NNW 12.7 mph 24.2 mph N/A   Scattered Clouds
6:55 PM 45.3 °F 40.1 °F 33.3 °F 63% 30.09 in 10.0 mi NNW 10.4 mph 21.9 mph N/A   Clear
7:15 PM 44.4 °F 37.9 °F 32.0 °F 62% 30.10 in 10.0 mi NNW 13.8 mph 19.6 mph N/A   Clear
7:35 PM 43.2 °F 37.0 °F 32.0 °F 65% 30.11 in 10.0 mi NNW 11.5 mph 21.9 mph N/A   Clear
7:55 PM 42.1 °F 35.2 °F 32.0 °F 67% 30.11 in 10.0 mi North 12.7 mph 20.7 mph N/A   Clear
8:15 PM 41.0 °F 33.1 °F 31.8 °F 70% 30.13 in 10.0 mi NNW 15.0 mph - N/A   Clear
8:35 PM 39.9 °F 31.1 °F 29.7 °F 67% 30.14 in 10.0 mi North 17.3 mph 24.2 mph N/A   Clear
8:55 PM 39.6 °F 31.7 °F 28.4 °F 64% 30.15 in 10.0 mi NNW 13.8 mph 25.3 mph N/A   Mostly Cloudy
9:15 PM 39.2 °F 31.2 °F 27.5 °F 63% 30.16 in 10.0 mi North 13.8 mph 20.7 mph N/A   Overcast
9:35 PM 39.2 °F 31.2 °F 28.2 °F 65% 30.17 in 10.0 mi NNW 13.8 mph 20.7 mph N/A   Overcast
9:55 PM 38.7 °F 31.4 °F 28.6 °F 67% 30.18 in 10.0 mi NNW 11.5 mph - N/A   Overcast
10:15 PM 37.6 °F 32.3 °F 28.0 °F 68% 30.18 in 10.0 mi North 6.9 mph - N/A   Mostly Cloudy
10:35 PM 36.9 °F 31.4 °F 28.0 °F 70% 30.19 in 10.0 mi NNW 6.9 mph - N/A   Mostly Cloudy
10:55 PM 37.0 °F 29.3 °F 27.7 °F 69% 30.18 in 10.0 mi NNW 11.5 mph - N/A   Overcast
11:15 PM 36.5 °F 31.0 °F 27.3 °F 69% 30.19 in 10.0 mi North 6.9 mph - N/A   Overcast
11:35 PM 35.6 °F 29.9 °F 27.3 °F 72% 30.19 in 10.0 mi North 6.9 mph - N/A   Overcast
11:55 PM 35.6 °F 29.2 °F 27.1 °F 71% 30.19 in 10.0 mi North 8.1 mph - N/A   Overcast